When you browse on this site, cookies collect data to enhance your experience and personalize the content and advertising you see.
Visit our Privacy Policy to learn more. By continuing to use the site, you agree to this use of cookies and data.
  • In Romania
  • List of Countries
  • For 7 days
  • Water Temperature
  • Weather Map
  • Weather Widgets
  • user-avatar
    Login

    Hourly Weather Nur

    Today, 24 August, Saturday

    Time Temperature Precipitation Wind Pressure Humidity
    00:00 +18°C° 0 mm 3 mps 763 mmHg 79%
    01:00 +17°C° 0 mm 3 mps 764 mmHg 80%
    02:00 +17°C° 0 mm 3 mps 764 mmHg 81%
    03:00 +16°C° 0 mm 3 mps 764 mmHg 80%
    04:00 +17°C° 0 mm 3 mps 764 mmHg 79%
    05:00 +17°C° 0 mm 3 mps 764 mmHg 77%
    06:00 +17°C° 0 mm 3 mps 764 mmHg 76%
    07:00 +18°C° 0 mm 4 mps 764 mmHg 73%
    08:00 +19°C° 0 mm 4 mps 764 mmHg 69%
    09:00 +21°C° 0 mm 4 mps 764 mmHg 65%
    10:00 +22°C° 0 mm 4 mps 764 mmHg 60%
    11:00 +23°C° 0 mm 4 mps 763 mmHg 55%
    12:00 +25°C° 0 mm 4 mps 763 mmHg 50%
    13:00 +25°C° 0 mm 4 mps 763 mmHg 47%
    14:00 +26°C° 0 mm 3 mps 763 mmHg 44%
    15:00 +26°C° 0 mm 3 mps 763 mmHg 41%
    16:00 +25°C° 0 mm 3 mps 762 mmHg 46%
    17:00 +24°C° 0 mm 2 mps 762 mmHg 51%
    18:00 +21°C° 0 mm 2 mps 762 mmHg 56%
    19:00 +20°C° 0 mm 2 mps 762 mmHg 59%
    20:00 +19°C° 0 mm 2 mps 762 mmHg 62%
    21:00 +17°C° 0 mm 2 mps 762 mmHg 66%
    22:00 +16°C° 0 mm 1 mps 762 mmHg 68%
    23:00 +16°C° 0 mm 1 mps 761 mmHg 71%

    Tomorrow, 25 August, Sunday

    Time Temperature Precipitation Wind Pressure Humidity
    00:00 +15°C° 0 mm 1 mps 761 mmHg 73%
    01:00 +15°C° 0 mm 1 mps 761 mmHg 75%
    02:00 +13°C° 0 mm 0 mps 761 mmHg 77%
    03:00 +13°C° 0 mm 0 mps 761 mmHg 79%
    04:00 +14°C° 0 mm 0 mps 761 mmHg 77%
    05:00 +14°C° 0 mm 0 mps 760 mmHg 75%
    06:00 +15°C° 0 mm 0 mps 760 mmHg 72%
    07:00 +19°C° 0 mm 1 mps 760 mmHg 65%
    08:00 +20°C° 0 mm 2 mps 760 mmHg 58%
    09:00 +23°C° 0 mm 2 mps 760 mmHg 51%
    10:00 +24°C° 0 mm 3 mps 759 mmHg 47%
    11:00 +25°C° 0 mm 4 mps 759 mmHg 44%
    12:00 +26°C° 0 mm 4 mps 758 mmHg 40%
    13:00 +26°C° 0 mm 5 mps 758 mmHg 44%
    14:00 +26°C° 0 mm 5 mps 759 mmHg 48%
    15:00 +26°C° 0 mm 6 mps 759 mmHg 51%
    16:00 +23°C° 0 mm 5 mps 759 mmHg 54%
    17:00 +22°C° 0 mm 5 mps 759 mmHg 58%
    18:00 +20°C° 0 mm 5 mps 759 mmHg 61%
    19:00 +19°C° 0 mm 4 mps 759 mmHg 65%
    20:00 +17°C° 0 mm 4 mps 760 mmHg 69%
    21:00 +14°C° 0 mm 4 mps 760 mmHg 72%
    22:00 +14°C° 0 mm 4 mps 760 mmHg 76%
    23:00 +14°C° 0 mm 4 mps 760 mmHg 79%

    Day after tomorrow, 26 August, Monday

    Time Temperature Precipitation Wind Pressure Humidity
    00:00 +13°C° 0 mm 5 mps 761 mmHg 82%
    01:00 +13°C° 0 mm 4 mps 761 mmHg 82%
    02:00 +12°C° 0 mm 4 mps 762 mmHg 82%
    03:00 +11°C° 0 mm 4 mps 762 mmHg 83%
    04:00 +12°C° 0 mm 4 mps 762 mmHg 82%
    05:00 +12°C° 0 mm 5 mps 763 mmHg 81%
    06:00 +12°C° 0 mm 5 mps 763 mmHg 80%
    07:00 +13°C° 0 mm 5 mps 763 mmHg 72%
    08:00 +14°C° 0 mm 6 mps 763 mmHg 65%
    09:00 +16°C° 0 mm 6 mps 764 mmHg 57%
    10:00 +17°C° 0 mm 6 mps 764 mmHg 54%
    11:00 +19°C° 0 mm 6 mps 764 mmHg 50%
    12:00 +19°C° 0 mm 6 mps 764 mmHg 47%
    13:00 +20°C° 0 mm 6 mps 764 mmHg 46%
    14:00 +20°C° 0 mm 6 mps 764 mmHg 46%
    15:00 +20°C° 0 mm 6 mps 764 mmHg 46%
    16:00 +19°C° 0 mm 5 mps 764 mmHg 51%
    17:00 +18°C° 0 mm 4 mps 763 mmHg 57%
    18:00 +17°C° 0 mm 3 mps 763 mmHg 62%
    19:00 +15°C° 0 mm 2 mps 764 mmHg 67%
    20:00 +14°C° 0 mm 2 mps 764 mmHg 72%
    21:00 +13°C° 0 mm 1 mps 764 mmHg 77%
    22:00 +12°C° 0 mm 1 mps 764 mmHg 78%
    23:00 +12°C° 0 mm 1 mps 763 mmHg 80%

    27 August, Tuesday

    Time Temperature Precipitation Wind Pressure Humidity
    00:00 +11°C° 0 mm 1 mps 763 mmHg 82%
    01:00 +11°C° 0 mm 1 mps 763 mmHg 82%
    02:00 +10°C° 0 mm 2 mps 763 mmHg 83%
    03:00 +10°C° 0 mm 2 mps 762 mmHg 83%
    04:00 +10°C° 0 mm 2 mps 762 mmHg 82%
    05:00 +11°C° 0 mm 3 mps 762 mmHg 81%
    06:00 +11°C° 0 mm 3 mps 761 mmHg 79%
    07:00 +13°C° 0 mm 4 mps 761 mmHg 72%
    08:00 +15°C° 0 mm 4 mps 761 mmHg 64%
    09:00 +17°C° 0 mm 5 mps 760 mmHg 56%
    10:00 +20°C° 0 mm 5 mps 759 mmHg 52%
    11:00 +21°C° 0 mm 6 mps 759 mmHg 49%
    12:00 +22°C° 0 mm 6 mps 758 mmHg 45%
    13:00 +22°C° 0 mm 6 mps 757 mmHg 45%
    14:00 +22°C° 0 mm 7 mps 757 mmHg 45%
    15:00 +23°C° 0 mm 7 mps 756 mmHg 44%
    16:00 +22°C° 0 mm 6 mps 755 mmHg 48%
    17:00 +21°C° 0 mm 5 mps 755 mmHg 52%
    18:00 +20°C° 0 mm 4 mps 754 mmHg 56%
    19:00 +19°C° 0 mm 4 mps 753 mmHg 57%
    20:00 +19°C° 0 mm 5 mps 752 mmHg 59%
    21:00 +17°C° 0 mm 5 mps 751 mmHg 60%
    22:00 +16°C° 0.4 mm 5 mps 751 mmHg 67%
    23:00 +17°C° 0.4 mm 4 mps 750 mmHg 74%

    28 August, Wednesday

    Time Temperature Precipitation Wind Pressure Humidity
    00:00 +15°C° 0.4 mm 4 mps 749 mmHg 81%
    01:00 +14°C° 1 mm 5 mps 749 mmHg 84%
    02:00 +14°C° 1 mm 6 mps 748 mmHg 86%
    03:00 +13°C° 1 mm 6 mps 747 mmHg 89%
    04:00 +12°C° 1.1 mm 7 mps 747 mmHg 89%
    05:00 +11°C° 1.1 mm 7 mps 747 mmHg 89%
    06:00 +11°C° 1.1 mm 7 mps 747 mmHg 89%
    07:00 +10°C° 1.2 mm 7 mps 747 mmHg 88%
    08:00 +9°C° 1.2 mm 7 mps 747 mmHg 87%
    09:00 +8°C° 1.2 mm 7 mps 747 mmHg 86%
    10:00 +8°C° 0.1 mm 7 mps 748 mmHg 82%
    11:00 +7°C° 0.1 mm 8 mps 748 mmHg 79%
    12:00 +7°C° 0.1 mm 8 mps 749 mmHg 76%
    13:00 +7°C° 0.3 mm 8 mps 749 mmHg 77%
    14:00 +7°C° 0.3 mm 8 mps 749 mmHg 79%
    15:00 +6°C° 0.3 mm 8 mps 749 mmHg 80%
    16:00 +6°C° 0.7 mm 7 mps 749 mmHg 80%
    17:00 +8°C° 0.7 mm 7 mps 749 mmHg 80%
    18:00 +8°C° 0.7 mm 6 mps 749 mmHg 81%
    19:00 +8°C° 0.1 mm 6 mps 749 mmHg 80%
    20:00 +8°C° 0.1 mm 7 mps 749 mmHg 79%
    21:00 +9°C° 0.1 mm 7 mps 749 mmHg 78%
    22:00 +9°C° 0 mm 7 mps 749 mmHg 79%
    23:00 +9°C° 0 mm 7 mps 749 mmHg 80%

    29 August, Thursday

    Time Temperature Precipitation Wind Pressure Humidity
    00:00 +9°C° 0 mm 7 mps 749 mmHg 82%
    01:00 +8°C° 0 mm 7 mps 749 mmHg 79%
    02:00 +8°C° 0 mm 7 mps 749 mmHg 77%
    03:00 +8°C° 0 mm 7 mps 749 mmHg 75%
    04:00 +8°C° 0 mm 7 mps 749 mmHg 75%
    05:00 +8°C° 0 mm 7 mps 749 mmHg 76%
    06:00 +8°C° 0 mm 7 mps 749 mmHg 76%
    07:00 +8°C° 0 mm 7 mps 750 mmHg 76%
    08:00 +9°C° 0 mm 7 mps 750 mmHg 76%
    09:00 +9°C° 0 mm 7 mps 750 mmHg 75%
    10:00 +9°C° 0 mm 7 mps 750 mmHg 76%
    11:00 +9°C° 0 mm 7 mps 751 mmHg 76%
    12:00 +10°C° 0 mm 7 mps 751 mmHg 77%
    13:00 +9°C° 0.2 mm 7 mps 751 mmHg 79%
    14:00 +9°C° 0.2 mm 6 mps 752 mmHg 80%
    15:00 +9°C° 0.2 mm 6 mps 752 mmHg 82%
    16:00 +9°C° 0.7 mm 6 mps 752 mmHg 85%
    17:00 +9°C° 0.7 mm 5 mps 752 mmHg 88%
    18:00 +8°C° 0.7 mm 5 mps 752 mmHg 91%
    19:00 +8°C° 0.8 mm 5 mps 752 mmHg 92%
    20:00 +8°C° 0.8 mm 5 mps 752 mmHg 92%
    21:00 +8°C° 0.8 mm 5 mps 752 mmHg 93%
    22:00 +9°C° 0.6 mm 5 mps 752 mmHg 93%
    23:00 +9°C° 0.6 mm 5 mps 752 mmHg 94%
    Show more